{"data":{"norad_id":68828,"intl_designator":"2026-090C","name":"COSMOS 2617","alt_names":[],"object_type":"PAYLOAD","status":"ACTIVE","operator":null,"country":"CIS","launch_date":"2026-04-23","launch_site_code":"PLMSC","launch_vehicle":null,"mission":null,"orbit_class":"UNKNOWN","rcs_meters":null,"size_class":null,"mass_kg":null,"dimensions":null,"purposes":[],"wikipedia_slug":null,"has_3d_model":false,"image_url":null,"decayed_at":null,"tle_current":{"epoch":"2026-05-25T04:19:30.531072Z","epoch_age_seconds":56787,"freshness":"FRESH","line1":"1 68828U 26090C   26145.18021448  .00033310  00000+0  16594-3 0  9992","line2":"2 68828  96.6462  63.6921 0018101 122.5260 237.7762 15.81585916  5034","mean_motion":15.81585916,"eccentricity":0.0018101,"inclination_deg":96.6462,"raan_deg":63.6921,"arg_perigee_deg":122.526,"mean_anomaly_deg":237.7762,"bstar":0.00016594,"rev_number":503,"period_min":91.047851743768,"perigee_km":313.82017827151,"apogee_km":338.09033305547,"semimajor_km":6704.0922556635,"source":"CELESTRAK","updated_at":"2026-05-25T13:38:08.123630Z"}}}